www.pogodaiklimat.ru

Погода и климат >> Архив погоды >> Таиланд >> Бангкок


АРХИВ ПОГОДЫ в Бангкоке

Время (UTC), дата Ветер
(напр.,м/с)
 
Видим.   Явления Облачность Т
(С)
Тd
(С)
f
(%)
Тe
(С)
Тes
(С)
Комфортность P
(гПа)
Po
(гПа)
Тmin
(С)
Tmax
(С)
R
(мм)
R24
(мм)
S
(см)
21 10.06 штиль 0 10 км 6/0
[Cs]
+26.2 +23.7 86 +36 +36 очень
душно
1005.9 1005.4
00 11.06 штиль 0 10 км 6/0
[Cs]
+29.0 +25.2 80 +42 +44 опасность
перегрева
1006.3 1005.8 +28.5
03 11.06 Ю 2 10 км 10/3 600 м
[Cu med, cong Ac trans Cs]
+31.0 +24.7 69 +44 +49 опасность
перегрева
1008.3 1007.8
06 11.06 штиль 0 8000 м в посл. час дождь 10/3 600 м
[Cu Sc Ac As]
+27.2 +26.2 94 +41 +47 опасность
перегрева
1006.9 1006.4 7
09 11.06 штиль 0 8000 м дымка 9/3 600 м
[Cu med, cong Ac As Cs]
+29.0 +27.0 89 +46 +50 опасность
перегрева
1004.7 1004.2
12 11.06 штиль 0 8000 м дымка 9/3 600 м
[Cu Sc Ac As Cs]
+28.9 +25.4 81 +42 +42 опасность
перегрева
1006.0 1005.5 +31.8
15 11.06 штиль 0 8000 м дымка 8/3 600 м
[Cu med, cong Ac As Cs]
+28.5 +25.2 82 +41 +41 опасность
перегрева
1007.0 1006.6
18 11.06 штиль 0 8000 м дымка 8/3 600 м
[Cu med, cong Ac und Cs]
+28.8 +24.8 79 +41 +41 опасность
перегрева
1007.1 1006.6
21 11.06 штиль 0 8000 м дымка 8/3 600 м
[Cu med, cong Cs]
+28.6 +25.2 82 +42 +42 опасность
перегрева
1006.1 1005.6
00 12.06 ЮВ 1 10 км 6/1 600 м
[Cu hum Cs]
+28.0 +25.6 87 +41 +43 опасность
перегрева
1007.6 1007.1 +27.7
03 12.06 ЮЗ 5 10 км 8/3 600 м
[Cu med, cong Cs]
+31.5 +25.4 70 +46 +51 опасность
перегрева
1008.5 1008.0
06 12.06 ЮЗ 7 10 км 8/3 600 м
[Cu med, cong Cs]
+33.5 +24.9 61 +47 +51 опасность
перегрева
1006.8 1006.3
09 12.06 ЮЗ 1 10 км 8/4 600 м
[Cu Sc Ac As Cs]
+32.8 +25.7 66 +48 +51 опасность
перегрева
1005.0 1004.6
12 12.06 Ю 7 10 км 6/3 600 м
[Cu med, cong Ac trans Cs]
+31.0 +26.8 78 +48 +48 опасность
перегрева
1005.0 1004.5 +34.6
15 12.06 СЗ 1 10 км 6/3 600 м
[Cu hum Cs]
+30.0 +25.0 75 +43 +43 опасность
перегрева
1007.6 1007.1
18 12.06 штиль 0 10 км 6/3 600 м
[Cu hum Cs]
+29.5 +24.5 75 +42 +42 опасность
перегрева
1006.5 1006.0
21 12.06 ЮЗ 1 10 км 6/3 600 м
[Cu hum Cs]
+29.1 +24.4 76 +41 +41 опасность
перегрева
1006.2 1005.7
00 13.06 штиль 0 10 км 4/0
[Ac und Cs]
+29.2 +25.4 80 +43 +44 опасность
перегрева
1006.7 1006.3 +29.1
03 13.06 ЮВ 2 10 км 4/3 600 м
[Cu med, cong Cs]
+33.1 +24.7 61 +46 +56 опасность
перегрева
1007.8 1007.3
06 13.06 З 1 10 км 6/3 600 м
[Cu med, cong Ac und Cs]
+34.2 +26.1 63 +50 +64 опасность
перегрева
1006.7 1006.2
09 13.06 З 2 10 км 8/4 600 м
[Cu Sc Ac As Cs]
+32.6 +25.6 67 +48 +51 опасность
перегрева
1004.9 1004.4
12 13.06 Ю 5 10 км 8/3 600 м
[Cu med, cong Ac As Cs]
+30.8 +26.0 76 +46 +46 опасность
перегрева
1005.6 1005.1 +35.0
15 13.06 Ю 2 10 км 8/3 600 м
[Cu med, cong Ac As Cs]
+30.0 +25.8 78 +45 +45 опасность
перегрева
1007.9 1007.4
18 13.06 Ю 3 10 км 6/3 600 м
[Cu med, cong Ac und Cs]
+29.7 +25.2 77 +43 +43 опасность
перегрева
1006.6 1006.1
21 13.06 Ю 1 10 км 6/3 600 м
[Cu med, cong Cs]
+29.2 +24.9 78 +42 +42 опасность
перегрева
1006.4 1005.9
00 14.06 штиль 0 10 км 6/1 600 м
[Cu hum Ac trans Cs]
+29.3 +25.8 81 +43 +45 опасность
перегрева
1007.0 1006.6 +29.2
03 14.06 ЮВ 2 10 км 8/4 600 м
[Cu Sc Ac As Cs]
+32.0 +25.4 68 +46 +52 опасность
перегрева
1008.3 1007.8
06 14.06 З 1 10 км 6/3 600 м
[Cu med, cong Ac und Cs]
+34.2 +26.1 63 +50 +64 опасность
перегрева
1006.7 1006.2
09 14.06 ЮВ 4 10 км 3/0
[Cs]
+34.3 +25.5 60 +49 +54 опасность
перегрева
1004.6 1004.1
12 14.06 Ю 5 10 км 8/3 600 м
[Sc Ac As Cs]
+30.8 +26.0 76 +46 +46 опасность
перегрева
1005.6 1005.1 +35.0
15 14.06 штиль 0 10 км 3/0
[Cs]
+30.3 +27.1 83 +48 +48 опасность
перегрева
1008.8 1008.3
18 14.06 Ю 2 10 км 3/0
[Cs]
+29.0 +25.0 79 +42 +42 опасность
перегрева
1007.4 1006.9
21 14.06 штиль 0 10 км 3/0
[Cs]
+29.0 +26.9 88 +45 +45 опасность
перегрева
1005.9 1005.4
00 15.06 штиль 0 10 км 3/0
[Cs]
+29.2 +24.9 78 +42 +44 опасность
перегрева
1007.4 1006.9 +28.8
03 15.06 штиль 0 10 км 4/0
[Ac und Cs]
+33.9 +25.6 62 +49 +65 опасность
перегрева
1007.3 1006.8
06 15.06 ЮВ 3 10 км 8/5 600 м
[Cu med, cong Ac trans Cs]
+33.9 +25.8 63 +49 +55 опасность
перегрева
1006.7 1006.2
09 15.06 ЮВ 4 10 км 6/0
[As op Cs]
+34.9 +25.5 58 +49 +53 опасность
перегрева
1004.3 1003.8
12 15.06 штиль 0 10 км 10/3 600 м
[Cu med, cong Ac As]
+31.0 +26.5 77 +47 +47 опасность
перегрева
1005.5 1005.0 +35.7
15 15.06 штиль 0 6000 м гроза, ливневой дождь 10/4 300 м
[Cb cap Ac As]
+27.2 +26.6 97 +42 +42 опасность
перегрева
1008.2 1007.7 7
18 15.06 штиль 0 6000 м дымка {гроза} 10/4 300 м
[Cu Sc Ac As]
+26.8 +26.4 98 +41 +41 опасность
перегрева
1008.1 1007.6 2
21 15.06 штиль 0 6000 м дымка 8/5 300 м
[Cu Sc As op Cs]
+25.5 +24.8 96 +36 +36 очень
душно
1006.9 1006.4
00 16.06 штиль 0 10 км 6/0
[Cs]
+28.2 +24.8 82 +40 +42 очень
душно
1006.3 1005.8 +26.2
03 16.06 штиль 0 10 км 6/0
[Cs]
+30.0 +25.0 75 +43 +62 опасность
перегрева
1008.2 1007.7
06 16.06 З 2 10 км 10/5 600 м
[Cu med, cong Ac As]
+34.8 +24.6 56 +48 +51 опасность
перегрева
1006.0 1005.6
09 16.06 ЮЗ 4 6000 м гроза, ливневой дождь 10/4 300 м
[Cb cap Ac As]
+27.8 +24.2 81 +39 +40 очень
душно
1004.9 1004.4 14
12 16.06 штиль 0 10 км {гроза} 10/5 600 м
[Cu med, cong Ac As]
+27.6 +26.5 94 +42 +42 опасность
перегрева
1006.0 1005.6 +35.2 0.6
15 16.06 штиль 0 10 км 8/3 600 м
[Cu hum Ac lent Cs]
+28.0 +26.9 94 +44 +44 опасность
перегрева
1007.8 1007.3
18 16.06 штиль 0 10 км 8/3 600 м
[Cu hum Ac lent Cs]
+27.0 +26.3 96 +41 +41 опасность
перегрева
1006.9 1006.4
21 16.06 штиль 0 10 км 8/3 600 м
[Cu hum Ac lent Cs]
+26.0 +25.3 96 +38 +38 очень
душно
1005.6 1005.1
00 17.06 штиль 0 10 км 10/5 600 м
[Cu med, cong Ac As]
+28.3 +25.5 85 +42 +42 опасность
перегрева
1006.3 1005.8 +27.6
03 17.06 ЮВ 4 10 км 10/5 600 м
[Cu med, cong Ac As]
+29.5 +26.7 85 +46 +47 опасность
перегрева
1008.6 1008.1
06 17.06 Ю 5 10 км 10/5 600 м
[Cu med, cong Ac As]
+30.6 +25.1 73 +44 +46 опасность
перегрева
1005.9 1005.4
09 17.06 ЮВ 4 10 км 10/5 600 м
[Cu med, cong Ac As]
+30.0 +25.0 75 +43 +44 опасность
перегрева
1004.3 1003.8
12 17.06 ЮВ 4 10 км 10/5 600 м
[Cu med, cong Ac As]
+30.0 +24.7 73 +43 +43 опасность
перегрева
1006.3 1005.8 +31.2
15 17.06 штиль 0 10 км 10/5 600 м
[Cu med, cong Ac As]
+29.0 +24.3 76 +41 +41 опасность
перегрева
1008.2 1007.7
18 17.06 штиль 0 10 км 10/3 600 м
[Cu med, cong Ac As]
+28.8 +24.0 75 +40 +40 очень
душно
1006.2 1005.7

 

Местоположение метеостанции Бангкок (Таиланд): широта 13.73 долгота 100.56 высота над уровнем моря 4 м.

В архиве по умолчанию представлена погода в Бангкоке за последнюю неделю. Архивные данные за месяц целиком и за предыдущие месяцы, начиная с января 2011 года, Вы можете получить, выбрав интересующий диапазон дат из раскрывающегося списка и нажав кнопку "Ввод!".


*Определитесь, кто Вы:
робот инопланетянин человек

Внимание! Время в таблицах - всемирное. Для получения местного времени необходимо прибавить поправку, которая равна 7 ч.

Смотрите также архив погоды в соседних городах и на ближайших метеорологических станциях:

Погода в Бангкоке 2 (Таиланд) (4 км)
Погода в Бангна Агромете (Таиланд) (9 км)
Погода в Дон Муанг (Таиланд) (22 км)
Погода в Аэропорту Суварнабхуми (Таиланд) (22 км)
Погода в Самутрудкан Агромете (Таиланд) (31 км)
Погода в Бангкок Пилот (Таиланд) (39 км)
Погода в Патхумтхани (Таиланд) (42 км)
Погода в Чонбури (Таиланд) (61 км)
Погода в Ратбури (Таиланд) (61 км)
Погода в Самутсонгкхраме (Таиланд) (67 км)

Пояснения к столбцам:

Ветер - указаны скорость ветра в м/с - средняя за 10 мин, порывы в срок и между сроками (в фигурных скобках) и направление, откуда дует ветер: С - северный, СВ - северо-восточный, В - восточный, ЮВ - юго-восточный, Ю - южный, ЮЗ - юго-западный, З - западный, СЗ - северо-западный.
Видимость - горизонтальная дальность видимости в метрах или километрах. При видимости от 1 до 10 км при отсутствии осадков обычно наблюдается дымка, при ухудшении видимости до 1 км и менее - туман. В сухую погоду видимость может ухудшаться дымом, пылью или мглою.
Явления - указаны атмосферные явления, наблюдавшиеся в срок или в последний час перед сроком; фигурными скобками обозначены явления, наблюдавшиеся между сроками (за 1-3 часа до срока); квадратными скобками обозначены град или гололедные отложения с указанием их диаметра в мм.
Облачность - указаны через наклонную черту общая и нижняя облачность в баллах и высота нижней границы облаков в метрах; квадратными скобками обозначены формы облаков: Ci - перистые, Cs - перисто-слоистые, Cc - перисто-кучевые, Ac - высококучевые, As - высокослоистые, Sc - слоисто-кучевые, Ns - слоисто-дождевые, Cu - кучевые, Cb - кучево-дождевые. Подробнее классификацию облаков см. в Атласе облаков (PDF).
T - Температура воздуха - температура, измеренная на высоте 2 м над землей.
Td - Температура точки росы - температура, при понижении до которой содержащийся в воздухе водяной пар достигнет насыщения.
f - Относительная влажность воздуха - влажноcть воздуха, измеренная на высоте 2 м над землей.
Te - Эффективная температура - температура, которую ощущает одетый по сезону человек в тени. Характеристика душности погоды. При расчете учитывается влияние влажности воздуха и скорости ветра на теплоощущения человека.
Tes - Эффективная температура на солнце - температура, которую ощущает человек, с поправкой на солнечный нагрев. Характеристика знойности погоды. Зависит от высоты солнца над горизонтом, облачности и скорости ветра. Ночью, в пасмурную погоду, а также при ветре 12 м/с и более поправка равна нулю.
P - Атмосферное давление - приведенное к уровню моря атмосферное давление.
Po - Атмосферное давление - измеренное на уровне метеостанции атмосферное давление.
Tmin - Минимальная температура - минимум температуры воздуха на высоте 2 м над землей.
Tmax - Максимальная температура - максимум температуры воздуха на высоте 2 м над землей.
R - Количество осадков - Количество выпавших осадков за период времени, мм. При наведении курсора мыши на число - период времени, за который выпало указанное количество осадков.
R24 - Количество осадков - Количество выпавших осадков за 24 часа, мм.
S - Снежный покров - Высота снежного покрова, см. При наведении курсора мыши на число - состояние снежного покрова и степень покрытия местности в баллах.